[[{"header":{"parameterUnit":"m.s-1","parameterCategory":2,"la1":30.2991,"la2":30.254,"lo1":-89.0895,"lo2":-89.0444,"dy":0.0017,"dx":0.0017,"nx":28,"ny":28,"refTime":"2024-07-15T09:00:00:Z","depth":"0","parameterNumber":2,"parameterNumberName":"U-component_of_CURRENTS"},"data":[0,0,0,0,0,0,0,0,0,0,0,0,0,0,0,0,0,0,0,0,0,0,0,0,0,0,0,0,0,0,0,0,0,0,0,0,0,0,0,0,0,0,0,0,0,0,0,0,0,0,0,0,0,0,0,0,0,0,0.2741,0.2741,0,0.2742,0.2741,0.2741,0.2684,0.2683,0.2683,0.2682,0.261,0.2609,0.2608,0,0,0,0,0,0,0,0,0,0,0,0,0,0.2682,0.2683,0.2741,0.2742,0.2742,0.2742,0.2741,0.274,0.2684,0.2683,0.2682,0.2681,0.261,0.2609,0.2607,0,0,0,0,0,0,0,0,0,0,0,0,0,0.269,0.2683,0.2741,0.272,0.2719,0.2742,0.2741,0.274,0.2684,0.2683,0.2682,0.2681,0.2611,0.2609,0.2607,0.2619,0,0,0.2602,0.2601,0,0,0,0,0,0,0,0,0.269,0.2692,0.2722,0.2722,0.272,0.2719,0.2695,0.2699,0.2685,0.2689,0.2682,0.268,0.2646,0.2641,0.2633,0.2616,0.2613,0.2602,0.2601,0.26,0.2599,0,0,0,0,0,0,0,0.2689,0.2691,0.2733,0.2723,0.2722,0.2709,0.2708,0.2695,0.2666,0.2689,0.2686,0.27,0.2643,0.2635,0.2631,0.2612,0.2602,0.26,0.2599,0.2598,0.2662,0.2665,0,0,0,0,0,0,0.2707,0.2691,0.2733,0.2734,0.2711,0.2711,0.271,0.2714,0.2668,0.2663,0.2701,0.2697,0.2639,0.2633,0.2628,0.2684,0.26,0.2598,0.2597,0.2659,0.2663,0.2666,0,0,0,0,0,0,0.2706,0.2711,0.2733,0.2719,0.2722,0.2714,0.2719,0.2715,0.2711,0.2679,0.2671,0.2703,0.2638,0.2631,0.2642,0.2679,0.2597,0.2596,0.2656,0.266,0.2664,0.2768,0,0,0,0,0,0,0.2704,0.271,0.2717,0.272,0.2724,0.2753,0.2721,0.2716,0.2725,0.272,0.2679,0.2671,0.2636,0.2645,0.264,0.2675,0.2594,0.2652,0.2658,0.2663,0.2761,0.2775,0.2787,0,0,0,0,0,0.2702,0.2719,0.2717,0.2722,0.2734,0.2755,0.2754,0.274,0.2727,0.273,0.2719,0.2672,0.2675,0.2646,0.264,0.2675,0.265,0.2656,0.2662,0.2755,0.2772,0.2787,0,0,0,0,0,0,0.2692,0.2716,0.2713,0.2735,0.2748,0.2748,0.2755,0.2752,0.2745,0.2738,0.2701,0.2694,0.2721,0.2691,0.2661,0.2713,0.2658,0.2663,0.273,0.2746,0.2759,0.2749,0.2593,0,0,0,0,0,0.2699,0.2714,0.2736,0.275,0.2761,0.276,0.2768,0.2762,0.2763,0.2757,0.2741,0.2732,0.2743,0.2738,0.2735,0.2756,0.2779,0.2779,0.2793,0.2804,0.2795,0.2892,0.2913,0.2686,0.2686,0.2686,0,0,0.2697,0.2715,0.2721,0.275,0.2753,0.2776,0.2759,0.2776,0.2794,0.2752,0.2769,0.2775,0.2763,0.2794,0.2803,0.2769,0.2889,0.2812,0.2821,0.2805,0.2901,0.2923,0.2942,0.269,0.269,0.2689,0,0,0.2706,0.272,0.2736,0.2756,0.2782,0.2789,0.2802,0.2817,0.282,0.2846,0.2838,0.2872,0.2863,0.2879,0.2882,0.2967,0.2961,0.297,0.3017,0.3113,0.3132,0.3149,0.3243,0.3267,0.297,0.297,0.297,0,0.2701,0.2724,0.2743,0.2769,0.2789,0.2801,0.2825,0.2839,0.2858,0.2882,0.2859,0.2918,0.2905,0.2969,0.2998,0.2994,0.3049,0.2955,0.313,0.3147,0.3163,0.3254,0.328,0.2976,0.2975,0.2975,0.2974,0,0.2721,0.2744,0.2758,0.2792,0.282,0.2841,0.2877,0.2904,0.2916,0.294,0.3007,0.3014,0.3049,0.3065,0.3048,0.3161,0.3168,0.3143,0.3088,0.3192,0.3282,0.3307,0.2984,0.2982,0.298,0.2979,0,0,0.2691,0.2757,0.2759,0.2777,0.2833,0.2852,0.2907,0.2961,0.3001,0.3037,0.3099,0.3143,0.3165,0.3172,0.3182,0.3253,0.3421,0.3245,0.3247,0.3333,0.3653,0.3722,0.3755,0.3438,0.3442,0.3445,0.3684,0,0.2692,0.2737,0.2779,0.2819,0.2842,0.289,0.2942,0.2999,0.3044,0.3111,0.3161,0.3216,0.3203,0.3231,0.3311,0.3386,0.3486,0.3359,0.3541,0.3546,0.3591,0.3785,0.3764,0.3981,0.3708,0.3712,0.3715,0,0.2691,0.2723,0.2762,0.2832,0.2848,0.288,0.2964,0.3011,0.3121,0.3165,0.3249,0.329,0.3407,0.337,0.3579,0.3506,0.3592,0.3647,0.3658,0.3693,0.3661,0.3826,0.4035,0.3852,0.3752,0.3749,0.3747,0,0.2643,0.2708,0.2736,0.2758,0.2843,0.2873,0.2918,0.3022,0.3073,0.3201,0.3263,0.3401,0.3474,0.3606,0.3728,0.3674,0.3958,0.3896,0.4048,0.4053,0.4053,0.4052,0.4096,0.4066,0.4065,0.4065,0.4064,0,0.2623,0.2642,0.271,0.2722,0.2761,0.2836,0.2894,0.2967,0.3081,0.3167,0.3282,0.3383,0.3539,0.3705,0.3799,0.4031,0.4036,0.4107,0.4142,0.4093,0.4093,0.3941,0.3811,0.4074,0.4072,0.407,0.4068,0,0.2564,0.261,0.2636,0.2712,0.2734,0.2755,0.2852,0.2904,0.3029,0.3145,0.3193,0.3407,0.3657,0.3827,0.4063,0.414,0.4225,0.4396,0.4333,0.4357,0.4311,0.4188,0.4137,0.4029,0.4621,0.4625,0.4628,0,0.2542,0.255,0.2602,0.2612,0.2639,0.2686,0.273,0.2853,0.2925,0.3161,0.3225,0.3499,0.3688,0.409,0.4316,0.4576,0.436,0.468,0.4569,0.436,0.4247,0.3992,0.3882,0.4622,0.4625,0.4627,0.4629,0,0.2492,0.2503,0.2523,0.2537,0.2564,0.2609,0.2685,0.2739,0.2914,0.3047,0.326,0.3424,0.386,0.4124,0.4488,0.4663,0.4451,0.4734,0.4538,0.4293,0.3997,0.3892,0.4392,0.4648,0.4646,0.4645,0.4644,0.4643,0.2444,0.2434,0.2449,0.2461,0.2487,0.2531,0.2561,0.2685,0.281,0.3024,0.3219,0.3477,0.3869,0.4399,0.4541,0.4755,0.4595,0.4687,0.4575,0.4349,0.4174,0.4729,0.4999,0.4999,0.4999,0.4999,0.4999,0,0.2375,0.2373,0.2378,0.2383,0.2382,0.2432,0.2531,0.2582,0.2719,0.2961,0.3162,0.3584,0.3913,0.4246,0.4601,0.4546,0.438,0.4461,0.4058,0.3975,0.4531,0.4458,0.4596,0.4596,0.4596,0.4596,0.4597,0.4597,0.2336,0.2309,0.2314,0.2281,0.2288,0.2298,0.2349,0.2455,0.2617,0.2879,0.3113,0.3341,0.3709,0.4065,0.4199,0.4223,0.385,0.3792,0.3632,0.3976,0.3983,0.3991,0.3891,0.3908,0.3907,0.2995,0.2988,0.2982]},{"header":{"parameterUnit":"m.s-1","parameterCategory":2,"la1":30.2991,"la2":30.254,"lo1":-89.0895,"lo2":-89.0444,"dy":0.0017,"dx":0.0017,"nx":28,"ny":28,"refTime":"2024-07-15T09:00:00:Z","depth":"0","parameterNumber":3,"parameterNumberName":"V-component_of_CURRENTS"},"data":[0,0,0,0,0,0,0,0,0,0,0,0,0,0,0,0,0,0,0,0,0,0,0,0,0,0,0,0,0,0,0,0,0,0,0,0,0,0,0,0,0,0,0,0,0,0,0,0,0,0,0,0,0,0,0,0,0,0,-0.0321,-0.0322,0,-0.0399,-0.04,-0.0401,-0.0471,-0.0472,-0.0473,-0.0474,-0.0588,-0.0591,-0.0593,0,0,0,0,0,0,0,0,0,0,0,0,0,-0.0245,-0.0245,-0.0321,-0.0322,-0.0323,-0.0399,-0.04,-0.0401,-0.0471,-0.0472,-0.0474,-0.0475,-0.0588,-0.059,-0.0593,0,0,0,0,0,0,0,0,0,0,0,0,0,-0.0294,-0.0246,-0.0321,-0.0369,-0.0374,-0.0399,-0.04,-0.0401,-0.0471,-0.0472,-0.0474,-0.0475,-0.0587,-0.059,-0.0593,-0.0583,0,0,-0.0603,-0.0604,0,0,0,0,0,0,0,0,-0.0291,-0.0297,-0.0361,-0.0366,-0.0371,-0.0429,-0.0415,-0.0465,-0.0471,-0.0432,-0.0474,-0.0476,-0.0538,-0.0546,-0.0554,-0.0589,-0.0594,-0.0603,-0.0605,-0.0607,-0.0607,0,0,0,0,0,0,0,-0.0288,-0.0294,-0.0351,-0.0362,-0.0368,-0.039,-0.0399,-0.0425,-0.0476,-0.0436,-0.0442,-0.0452,-0.0541,-0.0551,-0.0558,-0.0595,-0.0603,-0.0606,-0.0608,-0.0609,-0.0638,-0.0637,0,0,0,0,0,0,-0.0279,-0.029,-0.0348,-0.0353,-0.0336,-0.0391,-0.04,-0.0407,-0.0475,-0.0487,-0.0451,-0.0455,-0.0545,-0.0554,-0.0562,-0.0544,-0.0606,-0.0609,-0.0611,-0.0639,-0.0638,-0.0637,0,0,0,0,0,0,-0.0277,-0.0283,-0.0345,-0.0325,-0.0335,-0.039,-0.0398,-0.0408,-0.0421,-0.0486,-0.0499,-0.0454,-0.0546,-0.0557,-0.0578,-0.055,-0.0611,-0.0614,-0.0641,-0.0639,-0.0637,-0.0515,0,0,0,0,0,0,-0.0274,-0.0282,-0.0274,-0.0324,-0.0336,-0.0344,-0.0397,-0.0409,-0.0426,-0.0432,-0.0492,-0.0505,-0.0548,-0.0572,-0.0581,-0.0555,-0.0616,-0.0642,-0.064,-0.0638,-0.0521,-0.0509,-0.05,0,0,0,0,0,-0.0271,-0.0253,-0.0273,-0.028,-0.0326,-0.0343,-0.0349,-0.0394,-0.0424,-0.0413,-0.046,-0.0503,-0.0565,-0.0574,-0.0584,-0.0559,-0.0643,-0.0641,-0.0638,-0.0525,-0.0512,-0.05,0,0,0,0,0,0,-0.0211,-0.026,-0.0283,-0.028,-0.0303,-0.0355,-0.0351,-0.0384,-0.0411,-0.0421,-0.0487,-0.0501,-0.0509,-0.0549,-0.0557,-0.0562,-0.0611,-0.0611,-0.0522,-0.051,-0.05,-0.0479,-0.0619,0,0,0,0,0,-0.0194,-0.0195,-0.0243,-0.0236,-0.0247,-0.0297,-0.0308,-0.0337,-0.0374,-0.0389,-0.0433,-0.0477,-0.0504,-0.052,-0.0552,-0.055,-0.0587,-0.0541,-0.0531,-0.0522,-0.0512,-0.0545,-0.0536,-0.0628,-0.0628,-0.0628,0,0,-0.0169,-0.0195,-0.0196,-0.0223,-0.0248,-0.0244,-0.0306,-0.0315,-0.031,-0.0395,-0.0398,-0.0443,-0.0497,-0.0497,-0.0504,-0.0527,-0.0512,-0.0518,-0.051,-0.0505,-0.0541,-0.0532,-0.0524,-0.0627,-0.0627,-0.0627,0,0,-0.0118,-0.0142,-0.0127,-0.014,-0.017,-0.0197,-0.0196,-0.0241,-0.0259,-0.0267,-0.0327,-0.0349,-0.0395,-0.0422,-0.0443,-0.0393,-0.0457,-0.0408,-0.0336,-0.0367,-0.036,-0.0354,-0.0372,-0.0369,-0.0401,-0.0401,-0.0401,0,-0.0086,-0.0078,-0.0121,-0.0109,-0.011,-0.017,-0.0148,-0.0167,-0.0211,-0.0217,-0.0252,-0.031,-0.0355,-0.0356,-0.034,-0.0368,-0.0398,-0.0376,-0.0353,-0.0348,-0.0344,-0.0364,-0.0362,-0.0395,-0.0395,-0.0396,-0.0396,0,-0.0032,-0.002,-0.0008,-0.0014,-0.0015,-0.0004,-0.004,-0.0044,-0.0078,-0.0105,-0.0118,-0.0178,-0.0216,-0.0228,-0.0269,-0.0258,-0.0291,-0.0336,-0.038,-0.0327,-0.0352,-0.0352,-0.0386,-0.0388,-0.039,-0.0391,0,0,0.0024,0.0029,0.0034,0.0051,0.0035,0.0041,0.0055,0.0051,0.0065,0.0019,0.0033,-0.0016,-0.0062,-0.0089,-0.0145,-0.0167,-0.0158,-0.023,-0.0235,-0.024,-0.0219,-0.0217,-0.0217,-0.0204,-0.0204,-0.0204,-0.0241,0,0.008,0.0126,0.0114,0.017,0.019,0.0157,0.0181,0.017,0.0147,0.0148,0.0084,0.0074,-0.0005,-0.0016,-0.0052,-0.0133,-0.0156,-0.0143,-0.0278,-0.0281,-0.0279,-0.0216,-0.0177,-0.0206,-0.0242,-0.0242,-0.0242,0,0.0136,0.016,0.0218,0.0258,0.0266,0.0295,0.0318,0.0333,0.0315,0.0296,0.0264,0.0205,0.017,0.0091,-0.0016,-0.0008,-0.0099,-0.0166,-0.0171,-0.0212,-0.0279,-0.0271,-0.0206,-0.04,-0.0243,-0.0243,-0.0243,0,0.0188,0.0238,0.0289,0.0301,0.0332,0.0361,0.038,0.0379,0.0402,0.0392,0.0403,0.0331,0.0306,0.0185,0.0042,0.001,-0.0076,-0.0144,-0.0226,-0.0228,-0.0242,-0.0244,-0.0373,-0.0217,-0.0217,-0.0217,-0.0217,0,0.0247,0.0293,0.0322,0.035,0.0424,0.0427,0.0497,0.0501,0.0519,0.0562,0.0484,0.0502,0.0326,0.0246,0.0096,-0.0046,-0.004,-0.0193,-0.023,-0.0196,-0.0194,-0.0405,-0.0531,-0.0219,-0.0218,-0.0218,-0.0218,0,0.0294,0.0311,0.0375,0.0425,0.0448,0.0501,0.0571,0.0617,0.0629,0.0683,0.0687,0.0633,0.0546,0.0372,0.0194,0.004,-0.0201,-0.0165,-0.0101,-0.013,-0.0396,-0.0516,-0.0655,-0.0733,-0.026,-0.026,-0.026,0,0.032,0.0357,0.0426,0.0472,0.05,0.0575,0.0629,0.0664,0.0714,0.0768,0.0801,0.0752,0.0733,0.0493,0.0228,-0.0008,-0.0189,-0.0143,-0.0201,-0.0383,-0.0546,-0.0607,-0.0667,-0.0171,-0.017,-0.017,-0.0169,0,0.0375,0.0396,0.0446,0.0532,0.06,0.0683,0.0764,0.0821,0.0871,0.0933,0.0999,0.1002,0.0788,0.0603,0.0293,0.0099,-0.0262,-0.014,-0.0351,-0.0493,-0.0546,-0.0647,-0.0175,-0.0164,-0.0165,-0.0165,-0.0165,-0.0165,0.0412,0.0456,0.0519,0.0604,0.0685,0.0793,0.0873,0.0966,0.1077,0.1218,0.119,0.1294,0.0978,0.0572,0.0264,-0.0235,-0.0269,-0.039,-0.052,-0.0563,-0.064,-0.0143,-0.0166,-0.0166,-0.0167,-0.0167,-0.0167,0,0.0454,0.0509,0.0591,0.0698,0.0798,0.083,0.0965,0.1066,0.1218,0.1402,0.15,0.1496,0.1082,0.0626,-0.0068,-0.0512,-0.0671,-0.0756,-0.0855,-0.0902,-0.0474,-0.0473,-0.0536,-0.0536,-0.0536,-0.0535,-0.0535,-0.0535,0.0483,0.0559,0.0603,0.0774,0.0859,0.0999,0.1084,0.1246,0.1412,0.1698,0.187,0.1945,0.1573,0.0268,-0.0675,-0.0913,-0.1203,-0.1265,-0.1438,-0.1188,-0.1164,-0.1142,-0.117,-0.1378,-0.1379,-0.1772,-0.1777,-0.178]}],[{"header":{"parameterUnit":"m.s-1","parameterCategory":2,"la1":30.2991,"la2":30.254,"lo1":-89.0895,"lo2":-89.0444,"dy":0.0017,"dx":0.0017,"nx":28,"ny":28,"refTime":"2024-07-15T09:00:00:Z","depth":"2","parameterNumber":2,"parameterNumberName":"U-component_of_CURRENTS"},"data":[0,0,0,0,0,0,0,0,0,0,0,0,0,0,0,0,0,0,0,0,0,0,0,0,0,0,0,0,0,0,0,0,0,0,0,0,0,0,0,0,0,0,0,0,0,0,0,0,0,0,0,0,0,0,0,0,0,0,0.2039,0.204,0,0.2155,0.2157,0.2158,0.2195,0.2195,0.2194,0.2194,0.2248,0.225,0.2252,0,0,0,0,0,0,0,0,0,0,0,0,0,0.1857,0.186,0.2039,0.204,0.2042,0.2155,0.2157,0.2158,0.2195,0.2195,0.2194,0.2194,0.2248,0.225,0.2252,0,0,0,0,0,0,0,0,0,0,0,0,0,0.195,0.1861,0.2039,0.2075,0.2079,0.2155,0.2157,0.2159,0.2195,0.2195,0.2194,0.2193,0.2247,0.2249,0.2252,0.2282,0,0,0.2261,0.2262,0,0,0,0,0,0,0,0,0.1945,0.1956,0.2068,0.2073,0.2078,0.2161,0.2113,0.2197,0.2196,0.215,0.2194,0.2193,0.2215,0.222,0.2242,0.2284,0.2287,0.2261,0.2263,0.2264,0.2264,0,0,0,0,0,0,0,0.1938,0.1952,0.2084,0.207,0.2076,0.2089,0.2101,0.2129,0.2182,0.2154,0.2157,0.2172,0.2216,0.224,0.2244,0.2288,0.2261,0.2263,0.2265,0.2266,0.241,0.2412,0,0,0,0,0,0,0.1927,0.1946,0.208,0.2087,0.201,0.2092,0.2106,0.2134,0.2184,0.2191,0.2173,0.2174,0.2235,0.2241,0.2246,0.2324,0.2264,0.2266,0.2268,0.2408,0.241,0.2412,0,0,0,0,0,0,0.1923,0.1938,0.2075,0.2019,0.2037,0.2096,0.2127,0.2137,0.2162,0.2199,0.2205,0.2188,0.2235,0.2242,0.2285,0.2324,0.2268,0.227,0.2405,0.2408,0.2411,0.2453,0,0,0,0,0,0,0.1917,0.1937,0.195,0.2019,0.204,0.2128,0.2128,0.214,0.2173,0.2175,0.2214,0.2219,0.2235,0.2281,0.2288,0.2327,0.2272,0.2402,0.2406,0.241,0.2449,0.2458,0.2465,0,0,0,0,0,0.1911,0.1935,0.1951,0.1967,0.2059,0.2129,0.2142,0.2179,0.2174,0.2196,0.2223,0.2217,0.2312,0.2285,0.2292,0.2333,0.24,0.2405,0.241,0.2446,0.2456,0.2465,0,0,0,0,0,0,0.1866,0.1943,0.1962,0.2009,0.2067,0.2136,0.2163,0.218,0.2221,0.2221,0.224,0.2248,0.2314,0.2313,0.2283,0.2389,0.2358,0.2364,0.2382,0.2392,0.24,0.2409,0.2274,0,0,0,0,0,0.1862,0.1902,0.1974,0.2014,0.2044,0.2101,0.2131,0.216,0.2206,0.2223,0.2249,0.2285,0.2342,0.2354,0.2404,0.2443,0.2485,0.2478,0.2486,0.2492,0.2507,0.2613,0.2632,0.2428,0.2428,0.2428,0,0,0.1858,0.1904,0.1928,0.2007,0.2056,0.2108,0.2118,0.2174,0.2216,0.2222,0.2278,0.232,0.2364,0.243,0.2457,0.2428,0.2572,0.2498,0.2503,0.2515,0.262,0.264,0.2657,0.2432,0.2431,0.2431,0,0,0.1868,0.1913,0.1947,0.1997,0.2071,0.2114,0.2128,0.2201,0.2232,0.2289,0.2323,0.2385,0.2436,0.2495,0.2525,0.2601,0.2624,0.2611,0.264,0.2743,0.2761,0.2777,0.2854,0.2877,0.2596,0.2597,0.2597,0,0.1855,0.1912,0.1967,0.2014,0.2056,0.2115,0.2161,0.2213,0.2286,0.2327,0.2309,0.2451,0.2476,0.2589,0.2615,0.2621,0.2672,0.2596,0.2753,0.277,0.2786,0.2861,0.2886,0.2599,0.2599,0.2599,0.2598,0,0.189,0.1938,0.1967,0.2046,0.2098,0.2151,0.2229,0.2283,0.2316,0.237,0.2482,0.2535,0.2617,0.2639,0.2644,0.2776,0.2776,0.2765,0.2726,0.2809,0.2883,0.2908,0.2603,0.2602,0.2601,0.2601,0,0,0.1859,0.1967,0.1977,0.2013,0.2118,0.2163,0.225,0.2351,0.241,0.2485,0.2572,0.2676,0.2711,0.2751,0.2783,0.2855,0.3,0.2847,0.2851,0.2918,0.3223,0.2999,0.3004,0.3017,0.3022,0.3026,0.3229,0,0.1869,0.1942,0.2002,0.2077,0.2125,0.2211,0.2285,0.2384,0.2462,0.2559,0.2655,0.2752,0.2753,0.2797,0.288,0.2983,0.3068,0.2946,0.3138,0.3144,0.293,0.3025,0.2738,0.2875,0.3253,0.3257,0.326,0,0.1883,0.193,0.1999,0.2096,0.2126,0.218,0.2311,0.2389,0.255,0.2609,0.2735,0.2813,0.2967,0.2931,0.3166,0.309,0.3165,0.3226,0.3235,0.3028,0.2964,0.2856,0.2905,0.3301,0.3298,0.3295,0.3292,0,0.1831,0.1927,0.1976,0.2012,0.2135,0.2185,0.2257,0.2407,0.2486,0.266,0.2734,0.2917,0.3021,0.316,0.3286,0.3248,0.3518,0.3481,0.3361,0.3347,0.3138,0.3094,0.3652,0.3652,0.3651,0.3651,0.365,0,0.1824,0.1862,0.1953,0.1984,0.2044,0.2147,0.2238,0.2339,0.2496,0.261,0.2759,0.2876,0.3086,0.3253,0.3344,0.3424,0.3581,0.3391,0.3391,0.3139,0.3095,0.3486,0.3464,0.3658,0.3657,0.3655,0.3654,0,0.1779,0.1839,0.1892,0.1995,0.2025,0.2073,0.2209,0.2288,0.2438,0.2596,0.2661,0.29,0.3106,0.3283,0.3521,0.3476,0.3584,0.3574,0.324,0.3192,0.3333,0.3311,0.3464,0.3458,0.3452,0.3448,0.3445,0,0.1768,0.179,0.1873,0.1899,0.1947,0.2026,0.2092,0.2244,0.2336,0.2603,0.2679,0.2925,0.3051,0.328,0.3257,0.3349,0.354,0.3138,0.298,0.3332,0.3319,0.3305,0.3291,0.2756,0.2747,0.274,0.2734,0,0.1743,0.1766,0.1807,0.185,0.1906,0.1964,0.2069,0.2127,0.2334,0.246,0.2659,0.2776,0.2919,0.2859,0.2916,0.293,0.308,0.298,0.3517,0.279,0.2665,0.265,0.2661,0.2668,0.2675,0.268,0.2683,0.2686,0.1716,0.1725,0.1769,0.1806,0.1853,0.19,0.193,0.2047,0.2161,0.2305,0.2482,0.2536,0.2547,0.2423,0.2435,0.2444,0.2606,0.2558,0.2583,0.2615,0.2439,0.2304,0.221,0.2213,0.2217,0.222,0.2222,0,0.1695,0.1707,0.1728,0.1768,0.1779,0.1831,0.1914,0.1918,0.2001,0.2096,0.2182,0.1949,0.19,0.2024,0.1863,0.1826,0.1838,0.1857,0.1885,0.1946,0.2001,0.1798,0.1398,0.1397,0.1396,0.1394,0,0,0.169,0.1692,0.1696,0.1688,0.1708,0.1711,0.1733,0.173,0.1757,0.1684,0.1655,0.1704,0.1828,0.1528,0.1509,0.1469,0.1709,0.1418,0.2058,0.2145,0.2199,0.2361,0.2107,0,0,0,0,0]},{"header":{"parameterUnit":"m.s-1","parameterCategory":2,"la1":30.2991,"la2":30.254,"lo1":-89.0895,"lo2":-89.0444,"dy":0.0017,"dx":0.0017,"nx":28,"ny":28,"refTime":"2024-07-15T09:00:00:Z","depth":"2","parameterNumber":3,"parameterNumberName":"V-component_of_CURRENTS"},"data":[0,0,0,0,0,0,0,0,0,0,0,0,0,0,0,0,0,0,0,0,0,0,0,0,0,0,0,0,0,0,0,0,0,0,0,0,0,0,0,0,0,0,0,0,0,0,0,0,0,0,0,0,0,0,0,0,0,0,0.0328,0.0327,0,0.0264,0.0263,0.0262,0.0182,0.018,0.0179,0.0178,0.005,0.0048,0.0046,0,0,0,0,0,0,0,0,0,0,0,0,0,0.0348,0.0348,0.0328,0.0327,0.0326,0.0264,0.0263,0.0262,0.0182,0.018,0.0179,0.0178,0.0051,0.0048,0.0046,0,0,0,0,0,0,0,0,0,0,0,0,0,0.0317,0.0348,0.0328,0.0279,0.0274,0.0264,0.0263,0.0262,0.0182,0.018,0.0179,0.0177,0.0052,0.0049,0.0045,0.0062,0,0,0.0035,0.0034,0,0,0,0,0,0,0,0,0.0319,0.0316,0.0287,0.0283,0.0277,0.0229,0.0223,0.0192,0.0183,0.0217,0.0178,0.0176,0.0106,0.0098,0.009,0.0056,0.005,0.0035,0.0033,0.0031,0.003,0,0,0,0,0,0,0,0.0321,0.0318,0.0302,0.0287,0.028,0.0249,0.0243,0.0217,0.0171,0.0214,0.0208,0.0202,0.0102,0.0094,0.0087,0.0048,0.0035,0.0032,0.003,0.0029,-0.0019,-0.0019,0,0,0,0,0,0,0.0334,0.0321,0.0304,0.03,0.0294,0.025,0.0243,0.0246,0.0172,0.016,0.0204,0.0198,0.0101,0.0091,0.0082,0.0068,0.0031,0.0028,0.0026,-0.002,-0.0019,-0.0018,0,0,0,0,0,0,0.0335,0.0333,0.0307,0.0308,0.0303,0.0252,0.0256,0.0246,0.0227,0.0166,0.0151,0.0194,0.0099,0.0086,0.0057,0.0063,0.0027,0.0024,-0.0021,-0.002,-0.0019,0.0058,0,0,0,0,0,0,0.0336,0.0334,0.0341,0.031,0.0303,0.0305,0.0257,0.0246,0.0227,0.0219,0.0153,0.014,0.0096,0.0063,0.0054,0.0058,0.0021,-0.0022,-0.002,-0.0019,0.0055,0.0062,0.0068,0,0,0,0,0,0.0337,0.0359,0.0342,0.0339,0.0314,0.0306,0.03,0.0256,0.0229,0.023,0.0183,0.0141,0.0065,0.0061,0.005,0.0053,-0.0023,-0.0021,-0.0019,0.0052,0.006,0.0068,0,0,0,0,0,0,0.0375,0.0352,0.0332,0.0347,0.0328,0.0292,0.0292,0.0263,0.0229,0.0218,0.0154,0.0139,0.0114,0.008,0.0077,0.0044,0.0013,0.0013,0.0071,0.0078,0.0085,0.0097,0.0018,0,0,0,0,0,0.0388,0.0394,0.0366,0.0378,0.0372,0.0333,0.0323,0.0296,0.0263,0.0245,0.0199,0.0152,0.0118,0.0094,0.0061,0.0048,0.0011,0.0042,0.0049,0.0055,0.0059,0.0009,0.0011,-0.0013,-0.0013,-0.0013,0,0,0.0408,0.0395,0.0399,0.0386,0.0368,0.0373,0.0322,0.0316,0.0314,0.0239,0.0223,0.0176,0.0121,0.0102,0.0087,0.007,0.0046,0.0057,0.0062,0.0063,0.0011,0.0013,0.0015,-0.0012,-0.0012,-0.0012,0,0,0.0451,0.044,0.0455,0.0446,0.0425,0.0405,0.0405,0.0372,0.0349,0.0333,0.0276,0.0235,0.0187,0.0145,0.0118,0.0144,0.0085,0.0132,0.017,0.0123,0.0124,0.0125,0.0098,0.0095,0.0132,0.0132,0.0132,0,0.047,0.049,0.046,0.0473,0.0474,0.0424,0.0444,0.0422,0.0381,0.0372,0.0337,0.0263,0.0208,0.0181,0.0179,0.0158,0.0127,0.0145,0.0131,0.0131,0.013,0.0102,0.0098,0.0136,0.0135,0.0135,0.0135,0,0.052,0.0536,0.0549,0.0547,0.0546,0.0558,0.0527,0.0517,0.0482,0.0455,0.0421,0.0347,0.0296,0.0274,0.0228,0.0201,0.018,0.0148,0.0112,0.0137,0.0106,0.0101,0.0141,0.014,0.0139,0.0138,0,0,0.0557,0.0579,0.0581,0.06,0.0587,0.0596,0.0599,0.0591,0.0599,0.054,0.0539,0.0456,0.0404,0.0369,0.0304,0.0256,0.0218,0.02,0.0196,0.0176,0.0126,0.0081,0.007,0.0178,0.0178,0.0177,0.0111,0,0.0601,0.065,0.0645,0.0694,0.072,0.069,0.0703,0.0688,0.066,0.0649,0.0563,0.0532,0.0444,0.0413,0.0351,0.0261,0.0205,0.024,0.0102,0.0098,0.0056,0.0063,0.0021,-0.0044,0.0106,0.0105,0.0104,0,0.0646,0.0676,0.0731,0.0777,0.0785,0.0799,0.0816,0.0823,0.0792,0.0768,0.0713,0.0645,0.0566,0.0483,0.0333,0.0359,0.0241,0.0164,0.0159,0.0085,0.0043,-0.005,-0.006,0.0095,0.0096,0.0096,0.0097,0,0.0688,0.0739,0.0788,0.08,0.0836,0.085,0.0861,0.0853,0.0875,0.0834,0.0845,0.0736,0.0688,0.0536,0.0366,0.0341,0.0212,0.0157,0.0008,0.0005,-0.0075,-0.0084,0.0033,0.0033,0.0033,0.0034,0.0034,0,0.074,0.078,0.0808,0.0837,0.0897,0.0899,0.0953,0.0948,0.0957,0.1005,0.0901,0.0916,0.0695,0.0595,0.0415,0.0214,0.0243,0.0016,-0.0021,-0.0047,-0.0053,0.0028,0.0029,0.0031,0.0032,0.0032,0.0033,0,0.0776,0.0797,0.0857,0.0901,0.0917,0.0954,0.1014,0.106,0.1059,0.1116,0.1106,0.1043,0.091,0.0701,0.0471,0.0289,0.0097,0.001,0.0006,-0.0032,-0.0094,-0.0089,-0.0173,-0.0176,-0.0178,-0.0179,-0.0181,0,0.0799,0.0832,0.0897,0.0934,0.0952,0.1008,0.106,0.1092,0.1152,0.1211,0.1253,0.1154,0.1092,0.0763,0.0399,0.0072,0.0083,-0.015,-0.0228,-0.0091,-0.0118,-0.011,-0.0102,-0.0294,-0.0296,-0.0298,-0.03,0,0.0837,0.0851,0.0898,0.0976,0.1034,0.1124,0.12,0.127,0.1331,0.1389,0.1471,0.1432,0.1086,0.0713,0.0255,0.005,-0.0105,-0.0198,-0.0056,-0.0233,-0.021,-0.0235,-0.0223,-0.0315,-0.0314,-0.0313,-0.0312,-0.0311,0.0847,0.0883,0.0939,0.1016,0.1098,0.1226,0.1313,0.1419,0.1536,0.1596,0.1574,0.1439,0.1019,0.0336,0.0049,-0.0254,-0.0255,-0.0384,-0.0377,-0.0368,-0.0368,-0.035,-0.048,-0.0479,-0.0479,-0.0478,-0.0478,0,0.0845,0.0896,0.0977,0.1084,0.1195,0.1234,0.14,0.1497,0.1652,0.1598,0.1597,0.1082,0.0677,0.0295,-0.0226,-0.0517,-0.0511,-0.0542,-0.0501,-0.0487,-0.0473,-0.0476,-0.0618,-0.0618,-0.0618,-0.0619,0,0,0.0844,0.0908,0.0963,0.1137,0.1227,0.1385,0.1489,0.1635,0.1636,0.1532,0.1337,0.1081,0.0613,0.0187,-0.0171,-0.0382,-0.0346,-0.0404,-0.0279,-0.0177,-0.0159,-0.039,-0.0379,0,0,0,0,0]}],[{"header":{"parameterUnit":"m.s-1","parameterCategory":2,"la1":30.2991,"la2":30.254,"lo1":-89.0895,"lo2":-89.0444,"dy":0.0017,"dx":0.0017,"nx":28,"ny":28,"refTime":"2024-07-15T09:00:00:Z","depth":"4","parameterNumber":2,"parameterNumberName":"U-component_of_CURRENTS"},"data":[0,0,0,0,0,0,0,0,0,0,0,0,0,0,0,0,0,0,0,0,0,0,0,0,0,0,0,0,0,0,0,0,0,0,0,0,0,0,0,0,0,0,0,0,0,0,0,0,0,0,0,0,0,0,0,0,0,0,0.0641,0.0641,0,0.069,0.069,0.0691,0.0752,0.0753,0.0754,0.0754,0.0804,0.0804,0.0805,0,0,0,0,0,0,0,0,0,0,0,0,0,0.0567,0.0568,0.064,0.0641,0.0641,0.0689,0.069,0.0691,0.0752,0.0753,0.0754,0.0755,0.0803,0.0804,0.0805,0,0,0,0,0,0,0,0,0,0,0,0,0,0.0607,0.0569,0.064,0.0676,0.068,0.0689,0.069,0.0691,0.0752,0.0753,0.0754,0.0755,0.0803,0.0804,0.0805,0.0785,0,0,0.0807,0.0808,0,0,0,0,0,0,0,0,0.0605,0.061,0.0671,0.0674,0.0678,0.0715,0.0682,0.0722,0.0751,0.0726,0.0754,0.0756,0.0772,0.0775,0.0784,0.0787,0.0789,0.0807,0.0808,0.0808,0.0808,0,0,0,0,0,0,0,0.0602,0.0608,0.0662,0.0671,0.0675,0.0679,0.0687,0.069,0.0743,0.0728,0.0733,0.0735,0.0774,0.0783,0.0786,0.079,0.0807,0.0808,0.0808,0.0809,0.0852,0.0852,0,0,0,0,0,0,0.0594,0.0606,0.066,0.0663,0.0642,0.0679,0.0688,0.0703,0.0743,0.0749,0.0734,0.0738,0.0781,0.0785,0.0787,0.0861,0.0808,0.0809,0.0809,0.0851,0.0852,0.0852,0,0,0,0,0,0,0.0592,0.0598,0.0658,0.0633,0.0641,0.0679,0.0696,0.0703,0.0741,0.0747,0.0754,0.0768,0.0782,0.0786,0.0806,0.0859,0.0809,0.081,0.085,0.0851,0.0852,0.0946,0,0,0,0,0,0,0.059,0.0598,0.0621,0.0633,0.0642,0.067,0.0694,0.0703,0.0738,0.0745,0.0777,0.0782,0.0783,0.0805,0.0807,0.086,0.0811,0.0849,0.0851,0.0852,0.0942,0.095,0.0957,0,0,0,0,0,0.0587,0.06,0.0623,0.063,0.0669,0.067,0.0675,0.0707,0.0739,0.0748,0.0774,0.0782,0.0815,0.0805,0.0808,0.0862,0.0849,0.085,0.0852,0.0939,0.0949,0.0957,0,0,0,0,0,0,0.0577,0.0608,0.0633,0.0656,0.0669,0.068,0.0699,0.072,0.075,0.0769,0.0783,0.0787,0.0822,0.0817,0.0807,0.0874,0.0836,0.0838,0.0902,0.0911,0.0918,0.0895,0.0811,0,0,0,0,0,0.0586,0.0599,0.0629,0.064,0.0662,0.069,0.0703,0.072,0.0739,0.0756,0.0783,0.0807,0.0823,0.0848,0.0848,0.0886,0.0849,0.0922,0.0929,0.0936,0.0916,0.0905,0.091,0.0857,0.0857,0.0857,0,0,0.0587,0.0597,0.0611,0.0638,0.0662,0.0693,0.0702,0.0724,0.0747,0.0754,0.0809,0.0824,0.0831,0.0872,0.089,0.0886,0.0933,0.0938,0.0944,0.092,0.0907,0.0912,0.0916,0.0858,0.0858,0.0858,0,0,0.0577,0.061,0.0632,0.0646,0.0676,0.0696,0.071,0.0747,0.0772,0.0807,0.0825,0.0855,0.0899,0.0911,0.0923,0.0963,0.0957,0.0997,0.1042,0.1033,0.1037,0.104,0.1007,0.1007,0.1021,0.1021,0.1021,0,0.0579,0.0611,0.0632,0.0654,0.0674,0.0706,0.0739,0.0761,0.0795,0.0817,0.0833,0.0897,0.0906,0.0951,0.0981,0.098,0.0976,0.1017,0.1043,0.1045,0.1047,0.1013,0.1011,0.1026,0.1025,0.1025,0.1025,0,0.0595,0.0625,0.0634,0.0684,0.0707,0.0725,0.0766,0.0798,0.0843,0.0871,0.0922,0.0933,0.0979,0.1002,0.1014,0.1055,0.1047,0.1042,0.1024,0.1058,0.102,0.1016,0.1033,0.1031,0.103,0.1028,0,0,0.0579,0.064,0.0645,0.0674,0.0725,0.0739,0.0787,0.0836,0.0873,0.0921,0.0968,0.1011,0.1044,0.1055,0.1083,0.1087,0.1104,0.1097,0.1094,0.107,0.1088,0.1095,0.109,0.1134,0.1134,0.1134,0.106,0,0.0591,0.0638,0.0664,0.0711,0.0753,0.0787,0.0826,0.0869,0.091,0.0961,0.099,0.1053,0.1062,0.1119,0.1118,0.111,0.1099,0.1123,0.1052,0.1048,0.1055,0.1088,0.1133,0.1057,0.1056,0.1055,0.1055,0,0.0605,0.0634,0.0693,0.074,0.0765,0.0802,0.0868,0.0908,0.0973,0.1013,0.1074,0.1108,0.1154,0.1145,0.1126,0.1161,0.1127,0.1098,0.1095,0.1058,0.1048,0.1011,0.1047,0.1048,0.1048,0.1049,0.1049,0,0.0583,0.0644,0.0691,0.0709,0.0781,0.0817,0.0875,0.094,0.0975,0.1077,0.1114,0.1162,0.1212,0.1175,0.1151,0.116,0.1094,0.1088,0.1036,0.1035,0.1008,0.1005,0.1031,0.1031,0.1031,0.1032,0.1032,0,0.0567,0.0598,0.0693,0.0712,0.0771,0.0838,0.09,0.0958,0.1036,0.1076,0.1166,0.1178,0.1231,0.1211,0.1155,0.1096,0.1099,0.1032,0.1021,0.105,0.1052,0.1005,0.1003,0.1029,0.1029,0.103,0.103,0,0.0522,0.0582,0.0629,0.0723,0.076,0.0815,0.0918,0.0955,0.1054,0.1102,0.1154,0.1222,0.1227,0.1218,0.1164,0.1117,0.1043,0.1007,0.1031,0.1024,0.0979,0.0983,0.094,0.094,0.094,0.094,0.094,0,0.0502,0.0531,0.0629,0.0668,0.0716,0.0807,0.0861,0.0966,0.0994,0.1087,0.109,0.1163,0.119,0.11,0.1107,0.1031,0.101,0.0976,0.0981,0.0978,0.0972,0.0976,0.098,0.0939,0.0939,0.0939,0.0939,0,0.0463,0.0504,0.0542,0.0627,0.069,0.0746,0.0831,0.084,0.0946,0.1025,0.1034,0.1061,0.1067,0.1063,0.1056,0.0974,0.1012,0.0973,0.0973,0.0976,0.0976,0.0971,0.0975,0.0938,0.0938,0.0938,0.0938,0,0.0428,0.0442,0.0506,0.057,0.0645,0.0681,0.0725,0.0771,0.0817,0.0923,0.0905,0.0963,0.1035,0.1027,0.0972,0.097,0.0946,0.0911,0.0913,0.0914,0.095,0.0949,0.0887,0,0,0,0,0,0.0405,0.0416,0.0458,0.0514,0.0583,0.0629,0.07,0.0738,0.0815,0.0808,0.0868,0.0868,0.0894,0.0906,0.0895,0.0945,0.0935,0.0929,0.0892,0.0934,0.0935,0.0985,0,0,0,0,0,0,0.0383,0.0417,0.0428,0.0463,0.0496,0.0555,0.0596,0.0645,0.0642,0.0731,0.0736,0.0832,0.0845,0.089,0.088,0.089,0.0855,0.0973,0.0972,0.0933,0.0934,0.0935,0.0987,0,0,0,0,0]},{"header":{"parameterUnit":"m.s-1","parameterCategory":2,"la1":30.2991,"la2":30.254,"lo1":-89.0895,"lo2":-89.0444,"dy":0.0017,"dx":0.0017,"nx":28,"ny":28,"refTime":"2024-07-15T09:00:00:Z","depth":"4","parameterNumber":3,"parameterNumberName":"V-component_of_CURRENTS"},"data":[0,0,0,0,0,0,0,0,0,0,0,0,0,0,0,0,0,0,0,0,0,0,0,0,0,0,0,0,0,0,0,0,0,0,0,0,0,0,0,0,0,0,0,0,0,0,0,0,0,0,0,0,0,0,0,0,0,0,-0.0121,-0.0122,0,-0.0197,-0.0198,-0.0199,-0.023,-0.0229,-0.0229,-0.0229,-0.0313,-0.0316,-0.0318,0,0,0,0,0,0,0,0,0,0,0,0,0,-0.0065,-0.0065,-0.0121,-0.0122,-0.0123,-0.0197,-0.0198,-0.02,-0.023,-0.0229,-0.0229,-0.0229,-0.0312,-0.0316,-0.0319,0,0,0,0,0,0,0,0,0,0,0,0,0,-0.0111,-0.0065,-0.0121,-0.0145,-0.0148,-0.0197,-0.0199,-0.02,-0.023,-0.0229,-0.0229,-0.0228,-0.0311,-0.0315,-0.0319,-0.0354,0,0,-0.0331,-0.0333,0,0,0,0,0,0,0,0,-0.0109,-0.0114,-0.0141,-0.0144,-0.0147,-0.0202,-0.021,-0.0251,-0.023,-0.0201,-0.0229,-0.0228,-0.0276,-0.0283,-0.0301,-0.0358,-0.0361,-0.0331,-0.0334,-0.0335,-0.0336,0,0,0,0,0,0,0,-0.0105,-0.0111,-0.0153,-0.0142,-0.0146,-0.0174,-0.018,-0.0218,-0.0242,-0.0203,-0.0205,-0.0211,-0.0278,-0.0297,-0.0303,-0.0363,-0.0331,-0.0335,-0.0337,-0.0338,-0.0479,-0.048,0,0,0,0,0,0,-0.009,-0.0108,-0.0151,-0.0155,-0.0124,-0.0175,-0.0182,-0.0186,-0.0242,-0.0249,-0.0211,-0.0212,-0.0291,-0.0298,-0.0306,-0.0382,-0.0335,-0.0339,-0.0341,-0.0478,-0.0479,-0.0481,0,0,0,0,0,0,-0.0088,-0.0093,-0.0148,-0.0132,-0.014,-0.0176,-0.0182,-0.0188,-0.0215,-0.0247,-0.0255,-0.0231,-0.0291,-0.0301,-0.0347,-0.0384,-0.0341,-0.0344,-0.0476,-0.0478,-0.048,-0.0514,0,0,0,0,0,0,-0.0086,-0.0092,-0.0098,-0.0131,-0.0141,-0.0173,-0.0182,-0.019,-0.0218,-0.022,-0.0267,-0.0274,-0.0291,-0.0341,-0.0351,-0.0389,-0.0347,-0.0474,-0.0477,-0.048,-0.0511,-0.0516,-0.0522,0,0,0,0,0,-0.0084,-0.0089,-0.0098,-0.0104,-0.0145,-0.0173,-0.0181,-0.0206,-0.0219,-0.0229,-0.0266,-0.0273,-0.0365,-0.0345,-0.0356,-0.0396,-0.0473,-0.0476,-0.0479,-0.0508,-0.0515,-0.0521,0,0,0,0,0,0,-0.0071,-0.0094,-0.0104,-0.0117,-0.0141,-0.0177,-0.0193,-0.0213,-0.0252,-0.0258,-0.0291,-0.0301,-0.0355,-0.037,-0.0348,-0.0444,-0.0421,-0.0426,-0.0439,-0.0446,-0.0451,-0.0404,-0.035,0,0,0,0,0,-0.0069,-0.0073,-0.0105,-0.0113,-0.013,-0.0166,-0.0184,-0.0199,-0.0234,-0.0251,-0.0287,-0.033,-0.0378,-0.0405,-0.044,-0.0494,-0.048,-0.0527,-0.0533,-0.0537,-0.0506,-0.053,-0.0534,-0.0491,-0.0491,-0.0491,0,0,-0.0069,-0.0077,-0.0083,-0.0109,-0.0135,-0.0158,-0.0176,-0.0202,-0.0218,-0.0255,-0.0299,-0.0348,-0.0395,-0.0454,-0.0481,-0.0472,-0.0545,-0.0541,-0.0545,-0.0511,-0.0534,-0.0538,-0.0541,-0.0493,-0.0493,-0.0493,0,0,-0.0061,-0.0077,-0.0084,-0.0102,-0.0132,-0.0155,-0.0163,-0.0208,-0.0228,-0.0273,-0.0313,-0.037,-0.0442,-0.0482,-0.0513,-0.0567,-0.057,-0.0602,-0.0598,-0.0624,-0.0626,-0.0629,-0.0622,-0.0623,-0.0609,-0.0609,-0.0609,0,-0.0057,-0.0068,-0.0091,-0.0102,-0.0117,-0.0153,-0.017,-0.0198,-0.0249,-0.027,-0.0282,-0.0403,-0.0445,-0.0522,-0.0548,-0.0577,-0.0584,-0.0573,-0.0628,-0.0631,-0.0632,-0.0625,-0.0626,-0.0611,-0.0611,-0.0611,-0.061,0,-0.0061,-0.0071,-0.0077,-0.01,-0.0122,-0.0137,-0.0175,-0.0202,-0.0235,-0.0268,-0.0342,-0.0407,-0.0474,-0.052,-0.0553,-0.0612,-0.0611,-0.063,-0.0606,-0.0638,-0.0629,-0.0629,-0.0614,-0.0613,-0.0613,-0.0612,0,0,-0.0045,-0.0073,-0.0074,-0.0082,-0.0119,-0.0135,-0.0164,-0.0204,-0.0223,-0.0287,-0.0325,-0.0427,-0.0469,-0.0504,-0.0572,-0.0603,-0.0638,-0.0628,-0.0628,-0.0608,-0.0679,-0.0664,-0.0662,-0.0682,-0.0682,-0.0682,-0.0669,0,-0.0041,-0.005,-0.007,-0.0086,-0.0102,-0.0134,-0.0155,-0.0193,-0.0232,-0.0276,-0.0351,-0.0416,-0.0464,-0.0516,-0.0556,-0.0625,-0.064,-0.0637,-0.0659,-0.0658,-0.0632,-0.0663,-0.0683,-0.0669,-0.0669,-0.0669,-0.0669,0,-0.0044,-0.0045,-0.0056,-0.0075,-0.0087,-0.01,-0.0135,-0.0158,-0.022,-0.0255,-0.0326,-0.0388,-0.047,-0.0495,-0.0584,-0.059,-0.0621,-0.0656,-0.0657,-0.062,-0.0644,-0.063,-0.067,-0.067,-0.067,-0.067,-0.067,0,-0.0021,-0.0038,-0.004,-0.0047,-0.0077,-0.0085,-0.0105,-0.0154,-0.0167,-0.0245,-0.0266,-0.0371,-0.0422,-0.0487,-0.0572,-0.0586,-0.0643,-0.0669,-0.0668,-0.0666,-0.0666,-0.0664,-0.0688,-0.0688,-0.0688,-0.0688,-0.0688,0,-0.0008,-0.0011,-0.0025,-0.0024,-0.0025,-0.006,-0.0068,-0.0102,-0.0143,-0.0157,-0.0256,-0.0289,-0.0424,-0.0484,-0.0553,-0.0611,-0.0625,-0.0649,-0.0664,-0.0683,-0.0682,-0.0666,-0.0664,-0.0688,-0.0688,-0.0688,-0.0688,0,0.001,0.0002,0.0002,-0.0012,-0.0013,-0.0016,-0.0029,-0.0035,-0.008,-0.0097,-0.0123,-0.023,-0.032,-0.0426,-0.0531,-0.0574,-0.0639,-0.0645,-0.0633,-0.0649,-0.0642,-0.0642,-0.0636,-0.0635,-0.0635,-0.0634,-0.0634,0,0.0018,0.0022,0.0025,0.0035,0.0032,0.003,0.0033,-0.0003,-0.0001,-0.0055,-0.0058,-0.0155,-0.0233,-0.0354,-0.0481,-0.0593,-0.0608,-0.0624,-0.0649,-0.0623,-0.0638,-0.0639,-0.0639,-0.0633,-0.0633,-0.0633,-0.0633,0,0.0035,0.0038,0.0042,0.0072,0.0083,0.0092,0.0097,0.0108,0.0073,0.0045,0.0002,-0.0093,-0.0187,-0.0331,-0.0421,-0.0504,-0.0617,-0.0619,-0.062,-0.0645,-0.062,-0.0635,-0.0636,-0.0631,-0.0631,-0.0631,-0.0632,0,0.0052,0.0059,0.0076,0.0101,0.0121,0.0139,0.0138,0.0141,0.0134,0.009,0.0078,-0.0051,-0.0135,-0.0282,-0.0369,-0.0456,-0.0477,-0.0492,-0.0501,-0.0504,-0.0487,-0.0437,-0.0392,0,0,0,0,0,0.0069,0.0081,0.0104,0.0126,0.015,0.0159,0.0175,0.0172,0.016,0.015,0.0117,0.0029,-0.0128,-0.0217,-0.0297,-0.0367,-0.05,-0.0463,-0.0523,-0.0621,-0.0623,-0.0627,0,0,0,0,0,0,0.0076,0.01,0.0107,0.0147,0.0167,0.0188,0.0195,0.0188,0.0181,0.0158,0.0071,0.0027,-0.0135,-0.0077,-0.0294,-0.0326,-0.0369,-0.0544,-0.0545,-0.062,-0.0622,-0.0624,-0.0628,0,0,0,0,0]}]]